Torna al catalogo

TIROS 10

AttivoMeteoSSO
NORAD 1430·PAYLOAD·🇺🇸 United States

Lanciato Jul 2, 1965 da Cape Canaveral Space Force Station

Loading…

Prossimi Passaggi (prossime 24 ore)

TLE

AggiornatoSource: Space-Track

Epoca: Sep 14, 2026, 18:49 UTC

1 01430U 65051A   26257.78424743  .00000125  00000-0  51311-4 0  9999
2 01430  98.5136  16.7677 0055511 168.9262 191.3163 14.41656305208826

Traccia TIROS 10 in tempo reale con AllMySat

Download on the App Store